Avoca, PA

9:33 PM EDT on July 25, 2017 (GMT -0400)
Wilkes-Barre-Scranton International

Weather History for KAVP - January, 2014

Change the Weather History Date:

Friday, January 17, 2014

  Actual Average Record
Temperature  
Mean Temperature 30 °F 26 °F  
Max Temperature 39 °F 33 °F 60 °F (1990)
Min Temperature 21 °F 18 °F -10 °F (1977)
Degree Days  
Heating Degree Days 35 39  
Month to date heating degree days 663 662  
Since 1 July heating degree days 2977 3040  
Cooling Degree Days 0 0  
Month to date cooling degree days 0 0  
Year to date cooling degree days 0 0  
Moisture  
Dew Point 21 °F    
Average Humidity 69    
Maximum Humidity 85    
Minimum Humidity 52    
Precipitation  
Precipitation 0.00 in 0.08 in 1.05 in (1994)
Month to date precipitation 1.84 1.26  
Year to date precipitation 1.84 1.26  
Sea Level Pressure  
Sea Level Pressure 29.90 in    
Wind  
Wind Speed 6 mph (SW)    
Max Wind Speed 13 mph    
Max Gust Speed 21 mph    
Visibility 10 miles    
Events      
T = Trace of Precipitation, MM = Missing Value Source: NWS Daily Summary

Daily Weather History Graph

Daily Weather History Graph

Search for Another Location

Airport or City:

Trip Planner

Search our weather history database for the weather conditions in past years. The results will help you decide how hot, cold, wet, or windy it might be!

Date:

Astronomy

Jan. 17, 2014 Rise Set
Actual Time 7:25 AM EST 5:00 PM EST
Civil Twilight 6:55 AM EST 5:31 PM EST
Nautical Twilight 6:21 AM EST 6:05 PM EST
Astronomical Twilight 5:48 AM EST 6:38 PM EST
Moon 6:46 PM EST (1/17) 7:50 AM EST (1/17)
Length of Visible Light 10h 35m
Length of Day
9h 35m
Full, 98% of the Moon is Illuminated
Jan 17
Full
Jan 24
Last Quarter
Jan 30
New
Feb 6
First Quarter
Feb 14
Full

Hourly Weather History & Observations

Time (EST) Temp. Windchill Dew Point Humidity Pressure Visibility Wind Dir Wind Speed Gust Speed Precip Events Conditions
12:54 AM 21.9 °F 14.5 °F 18.0 °F 85% 29.91 in 10.0 mi Variable 5.8 mph - N/A   Clear
1:54 AM 25.0 °F - 17.1 °F 72% 29.90 in 10.0 mi Calm Calm - N/A   Clear
2:54 AM 23.0 °F 13.9 °F 17.1 °F 78% 29.90 in 10.0 mi SSW 8.1 mph - N/A   Mostly Cloudy
3:54 AM 26.1 °F 19.4 °F 17.1 °F 69% 29.89 in 10.0 mi Variable 5.8 mph - N/A   Overcast
4:54 AM 26.1 °F 20.5 °F 18.0 °F 71% 29.88 in 10.0 mi ENE 4.6 mph - N/A   Overcast
5:54 AM 25.0 °F - 18.0 °F 75% 29.88 in 10.0 mi Calm Calm - N/A   Partly Cloudy
6:54 AM 26.1 °F 21.9 °F 21.0 °F 81% 29.89 in 9.0 mi Variable 3.5 mph - N/A   Overcast
8:54 AM 30.0 °F - 21.0 °F 69% 29.91 in 8.0 mi Calm Calm - N/A   Clear
9:54 AM 32.0 °F 23.6 °F 21.0 °F 64% 29.93 in 9.0 mi West 10.4 mph - N/A   Clear
10:54 AM 36.0 °F 29.0 °F 23.0 °F 59% 29.92 in 10.0 mi West 9.2 mph - N/A   Clear
11:54 AM 37.9 °F 31.5 °F 23.0 °F 55% 29.90 in 10.0 mi WSW 9.2 mph 19.6 mph N/A   Scattered Clouds
12:54 PM 37.0 °F 29.8 °F 23.0 °F 57% 29.89 in 10.0 mi SW 10.4 mph - N/A   Overcast
1:54 PM 37.0 °F 31.6 °F 21.9 °F 54% 29.89 in 10.0 mi Variable 6.9 mph - N/A   Overcast
2:54 PM 37.9 °F 33.5 °F 23.0 °F 55% 29.88 in 10.0 mi WSW 5.8 mph - N/A   Overcast
3:54 PM 37.9 °F 32.7 °F 21.9 °F 53% 29.89 in 10.0 mi SW 6.9 mph - N/A   Overcast
4:54 PM 36.0 °F 32.1 °F 23.0 °F 59% 29.90 in 10.0 mi SW 4.6 mph - N/A   Mostly Cloudy
5:54 PM 34.0 °F 27.2 °F 23.0 °F 64% 29.91 in 10.0 mi SSW 8.1 mph - N/A   Partly Cloudy
6:54 PM 33.1 °F 27.7 °F 23.0 °F 66% 29.91 in 10.0 mi SSW 5.8 mph - N/A   Scattered Clouds
7:54 PM 32.0 °F 24.2 °F 23.0 °F 69% 29.90 in 10.0 mi SSW 9.2 mph - N/A   Clear
8:54 PM 32.0 °F 26.4 °F 24.1 °F 73% 29.90 in 10.0 mi West 5.8 mph - N/A   Clear
9:54 PM 30.9 °F 23.5 °F 24.1 °F 76% 29.90 in 8.0 mi SSW 8.1 mph - N/A   Clear
10:54 PM 28.9 °F 22.8 °F 24.1 °F 82% 29.88 in 8.0 mi Variable 5.8 mph - N/A   Clear
11:54 PM 30.9 °F 26.2 °F 23.0 °F 72% 29.84 in 8.0 mi ENE 4.6 mph - N/A   Clear